Year,Month,Day,Hour,Minute,Value (Times are PST for temperature in C)
2016,09,15,00,00,10.30
2016,09,15,00,01,10.30
2016,09,15,00,02,10.30
2016,09,15,00,03,10.20
2016,09,15,00,04,10.20
2016,09,15,00,05,10.20
2016,09,15,00,06,10.20
2016,09,15,00,07,10.10
2016,09,15,00,08,10.10
2016,09,15,00,09,10.10
2016,09,15,00,10,10.10
2016,09,15,00,11,10.10
2016,09,15,00,12,10.00
2016,09,15,00,13,10.00
2016,09,15,00,14,10.00
2016,09,15,00,15,10.00
2016,09,15,00,16,9.90
2016,09,15,00,17,9.90
2016,09,15,00,18,9.90
2016,09,15,00,19,9.80
2016,09,15,00,20,9.80
2016,09,15,00,21,9.80
2016,09,15,00,22,9.80
2016,09,15,00,23,9.80
2016,09,15,00,24,9.80
2016,09,15,00,25,9.80
2016,09,15,00,26,9.80
2016,09,15,00,27,9.80
2016,09,15,00,28,9.80
2016,09,15,00,29,9.80
2016,09,15,00,30,9.80
2016,09,15,00,31,9.80
2016,09,15,00,32,9.80
2016,09,15,00,33,9.80
2016,09,15,00,34,9.80
2016,09,15,00,35,9.80
2016,09,15,00,36,9.70
2016,09,15,00,37,9.70
2016,09,15,00,38,9.70
2016,09,15,00,39,9.70
2016,09,15,00,40,9.70
2016,09,15,00,41,9.70
2016,09,15,00,42,9.70
2016,09,15,00,43,9.70
2016,09,15,00,44,9.70
2016,09,15,00,45,9.70
2016,09,15,00,46,9.60
2016,09,15,00,47,9.60
2016,09,15,00,48,9.60
2016,09,15,00,49,9.60
2016,09,15,00,50,9.60
2016,09,15,00,51,9.50
2016,09,15,00,52,9.50
2016,09,15,00,53,9.50
2016,09,15,00,54,9.40
2016,09,15,00,55,9.40
2016,09,15,00,56,9.40
2016,09,15,00,57,9.40
2016,09,15,00,58,9.40
2016,09,15,00,59,9.40
2016,09,15,01,00,9.40
2016,09,15,01,01,9.40
2016,09,15,01,02,9.40
2016,09,15,01,03,9.40
2016,09,15,01,04,9.40
2016,09,15,01,05,9.40
2016,09,15,01,06,9.40
2016,09,15,01,07,9.40
2016,09,15,01,08,9.40
2016,09,15,01,09,9.40
2016,09,15,01,10,9.40
2016,09,15,01,11,9.40
2016,09,15,01,12,9.40
2016,09,15,01,13,9.40
2016,09,15,01,14,9.40
2016,09,15,01,15,9.40
2016,09,15,01,16,9.40
2016,09,15,01,17,9.30
2016,09,15,01,18,9.30
2016,09,15,01,19,9.30
2016,09,15,01,20,9.30
2016,09,15,01,21,9.30
2016,09,15,01,22,9.20
2016,09,15,01,23,9.20
2016,09,15,01,24,9.20
2016,09,15,01,25,9.20
2016,09,15,01,26,9.20
2016,09,15,01,27,9.10
2016,09,15,01,28,9.10
2016,09,15,01,29,9.10
2016,09,15,01,30,9.10
2016,09,15,01,31,9.10
2016,09,15,01,32,9.00
2016,09,15,01,33,9.00
2016,09,15,01,34,9.00
2016,09,15,01,35,8.90
2016,09,15,01,36,8.90
2016,09,15,01,37,8.90
2016,09,15,01,38,8.90
2016,09,15,01,39,8.90
2016,09,15,01,40,8.90
2016,09,15,01,41,8.90
2016,09,15,01,42,8.80
2016,09,15,01,43,8.90
2016,09,15,01,44,8.80
2016,09,15,01,45,8.80
2016,09,15,01,46,8.80
2016,09,15,01,47,8.80
2016,09,15,01,48,8.70
2016,09,15,01,49,8.70
2016,09,15,01,50,8.60
2016,09,15,01,51,8.60
2016,09,15,01,52,8.50
2016,09,15,01,53,8.50
2016,09,15,01,54,8.40
2016,09,15,01,55,8.40
2016,09,15,01,56,8.40
2016,09,15,01,57,8.40
2016,09,15,01,58,8.50
2016,09,15,01,59,8.50
2016,09,15,02,00,8.50
2016,09,15,02,01,8.40
2016,09,15,02,02,8.40
2016,09,15,02,03,8.40
2016,09,15,02,04,8.40
2016,09,15,02,05,8.40
2016,09,15,02,06,8.40
2016,09,15,02,07,8.40
2016,09,15,02,08,8.40
2016,09,15,02,09,8.40
2016,09,15,02,10,8.40
2016,09,15,02,11,8.40
2016,09,15,02,12,8.40
2016,09,15,02,13,8.40
2016,09,15,02,14,8.50
2016,09,15,02,15,8.50
2016,09,15,02,16,8.50
2016,09,15,02,17,8.60
2016,09,15,02,18,8.60
2016,09,15,02,19,8.50
2016,09,15,02,20,8.50
2016,09,15,02,21,8.40
2016,09,15,02,22,8.40
2016,09,15,02,23,8.40
2016,09,15,02,24,8.40
2016,09,15,02,25,8.40
2016,09,15,02,26,8.30
2016,09,15,02,27,8.30
2016,09,15,02,28,8.30
2016,09,15,02,29,8.30
2016,09,15,02,30,8.30
2016,09,15,02,31,8.30
2016,09,15,02,32,8.30
2016,09,15,02,33,8.30
2016,09,15,02,34,8.30
2016,09,15,02,35,8.30
2016,09,15,02,36,8.30
2016,09,15,02,37,8.30
2016,09,15,02,38,8.30
2016,09,15,02,39,8.30
2016,09,15,02,40,8.30
2016,09,15,02,41,8.30
2016,09,15,02,42,8.30
2016,09,15,02,43,8.30
2016,09,15,02,44,8.30
2016,09,15,02,45,8.30
2016,09,15,02,46,8.30
2016,09,15,02,47,8.30
2016,09,15,02,48,8.30
2016,09,15,02,49,8.30
2016,09,15,02,50,8.30
2016,09,15,02,51,8.30
2016,09,15,02,52,8.30
2016,09,15,02,53,8.30
2016,09,15,02,54,8.30
2016,09,15,02,55,8.30
2016,09,15,02,56,8.30
2016,09,15,02,57,8.30
2016,09,15,02,58,8.30
2016,09,15,02,59,8.20
2016,09,15,03,00,8.20
2016,09,15,03,01,8.20
2016,09,15,03,02,8.30
2016,09,15,03,03,8.30
2016,09,15,03,04,8.30
2016,09,15,03,05,8.40
2016,09,15,03,06,8.40
2016,09,15,03,07,8.40
2016,09,15,03,08,8.40
2016,09,15,03,09,8.30
2016,09,15,03,10,8.30
2016,09,15,03,11,8.30
2016,09,15,03,12,8.30
2016,09,15,03,13,8.20
2016,09,15,03,14,8.20
2016,09,15,03,15,8.20
2016,09,15,03,16,8.10
2016,09,15,03,17,8.00
2016,09,15,03,18,8.00
2016,09,15,03,19,8.00
2016,09,15,03,20,8.00
2016,09,15,03,21,8.00
2016,09,15,03,22,7.90
2016,09,15,03,23,7.90
2016,09,15,03,24,7.80
2016,09,15,03,25,7.80
2016,09,15,03,26,7.80
2016,09,15,03,27,7.80
2016,09,15,03,28,7.70
2016,09,15,03,29,7.70
2016,09,15,03,30,7.70
2016,09,15,03,31,7.70
2016,09,15,03,32,7.70
2016,09,15,03,33,7.60
2016,09,15,03,34,7.60
2016,09,15,03,35,7.60
2016,09,15,03,36,7.60
2016,09,15,03,37,7.60
2016,09,15,03,38,7.60
2016,09,15,03,39,7.70
2016,09,15,03,40,7.70
2016,09,15,03,41,7.70
2016,09,15,03,42,7.70
2016,09,15,03,43,7.80
2016,09,15,03,44,7.80
2016,09,15,03,45,7.80
2016,09,15,03,46,7.80
2016,09,15,03,47,7.90
2016,09,15,03,48,7.90
2016,09,15,03,49,7.90
2016,09,15,03,50,7.90
2016,09,15,03,51,7.90
2016,09,15,03,52,7.80
2016,09,15,03,53,7.80
2016,09,15,03,54,7.80
2016,09,15,03,55,7.80
2016,09,15,03,56,7.80
2016,09,15,03,57,7.70
2016,09,15,03,58,7.70
2016,09,15,03,59,7.70
2016,09,15,04,00,7.70
2016,09,15,04,01,7.60
2016,09,15,04,02,7.60
2016,09,15,04,03,7.60
2016,09,15,04,04,7.50
2016,09,15,04,05,7.50
2016,09,15,04,06,7.50
2016,09,15,04,07,7.40
2016,09,15,04,08,7.40
2016,09,15,04,09,7.40
2016,09,15,04,10,7.30
2016,09,15,04,11,7.30
2016,09,15,04,12,7.30
2016,09,15,04,13,7.30
2016,09,15,04,14,7.30
2016,09,15,04,15,7.20
2016,09,15,04,16,7.20
2016,09,15,04,17,7.20
2016,09,15,04,18,7.20
2016,09,15,04,19,7.20
2016,09,15,04,20,7.20
2016,09,15,04,21,7.20
2016,09,15,04,22,7.10
2016,09,15,04,23,7.10
2016,09,15,04,24,7.10
2016,09,15,04,25,7.10
2016,09,15,04,26,7.10
2016,09,15,04,27,7.10
2016,09,15,04,28,7.10
2016,09,15,04,29,7.20
2016,09,15,04,30,7.20
2016,09,15,04,31,7.20
2016,09,15,04,32,7.20
2016,09,15,04,33,7.20
2016,09,15,04,34,7.30
2016,09,15,04,35,7.30
2016,09,15,04,36,7.30
2016,09,15,04,37,7.30
2016,09,15,04,38,7.30
2016,09,15,04,39,7.40
2016,09,15,04,40,7.40
2016,09,15,04,41,7.40
2016,09,15,04,42,7.40
2016,09,15,04,43,7.40
2016,09,15,04,44,7.40
2016,09,15,04,45,7.40
2016,09,15,04,46,7.40
2016,09,15,04,47,7.40
2016,09,15,04,48,7.40
2016,09,15,04,49,7.40
2016,09,15,04,50,7.40
2016,09,15,04,51,7.40
2016,09,15,04,52,7.40
2016,09,15,04,53,7.50
2016,09,15,04,54,7.50
2016,09,15,04,55,7.50
2016,09,15,04,56,7.50
2016,09,15,04,57,7.40
2016,09,15,04,58,7.40
2016,09,15,04,59,7.40
2016,09,15,05,00,7.40
2016,09,15,05,01,7.40
2016,09,15,05,02,7.40
2016,09,15,05,03,7.40
2016,09,15,05,04,7.40
2016,09,15,05,05,7.40
2016,09,15,05,06,7.50
2016,09,15,05,07,7.50
2016,09,15,05,08,7.50
2016,09,15,05,09,7.50
2016,09,15,05,10,7.50
2016,09,15,05,11,7.60
2016,09,15,05,12,7.60
2016,09,15,05,13,7.60
2016,09,15,05,14,7.60
2016,09,15,05,15,7.60
2016,09,15,05,16,7.60
2016,09,15,05,17,7.50
2016,09,15,05,18,7.50
2016,09,15,05,19,7.50
2016,09,15,05,20,7.40
2016,09,15,05,21,7.40
2016,09,15,05,22,7.40
2016,09,15,05,23,7.40
2016,09,15,05,24,7.30
2016,09,15,05,25,7.30
2016,09,15,05,26,7.30
2016,09,15,05,27,7.30
2016,09,15,05,28,7.30
2016,09,15,05,29,7.30
2016,09,15,05,30,7.30
2016,09,15,05,31,7.30
2016,09,15,05,32,7.30
2016,09,15,05,33,7.30
2016,09,15,05,34,7.30
2016,09,15,05,35,7.30
2016,09,15,05,36,7.30
2016,09,15,05,37,7.30
2016,09,15,05,38,7.30
2016,09,15,05,39,7.20
2016,09,15,05,40,7.20
2016,09,15,05,41,7.20
2016,09,15,05,42,7.20
2016,09,15,05,43,7.20
2016,09,15,05,44,7.20
2016,09,15,05,45,7.10
2016,09,15,05,46,7.10
2016,09,15,05,47,7.10
2016,09,15,05,48,7.10
2016,09,15,05,49,7.10
2016,09,15,05,50,7.10
2016,09,15,05,51,7.10
2016,09,15,05,52,7.10
2016,09,15,05,53,7.10
2016,09,15,05,54,7.00
2016,09,15,05,55,7.00
2016,09,15,05,56,7.00
2016,09,15,05,57,7.00
2016,09,15,05,58,7.00
2016,09,15,05,59,7.00
2016,09,15,06,00,7.00
2016,09,15,06,01,7.00
2016,09,15,06,02,7.00
2016,09,15,06,03,7.00
2016,09,15,06,04,7.00
2016,09,15,06,05,7.00
2016,09,15,06,06,7.00
2016,09,15,06,07,7.00
2016,09,15,06,08,7.00
2016,09,15,06,09,7.00
2016,09,15,06,10,7.00
2016,09,15,06,11,7.00
2016,09,15,06,12,7.10
2016,09,15,06,13,7.10
2016,09,15,06,14,7.10
2016,09,15,06,15,7.10
2016,09,15,06,16,7.10
2016,09,15,06,17,7.10
2016,09,15,06,18,7.00
2016,09,15,06,19,7.00
2016,09,15,06,20,7.00
2016,09,15,06,21,6.90
2016,09,15,06,22,6.90
2016,09,15,06,23,6.90
2016,09,15,06,24,6.80
2016,09,15,06,25,6.80
2016,09,15,06,26,6.80
2016,09,15,06,27,6.80
2016,09,15,06,28,6.80
2016,09,15,06,29,6.80
2016,09,15,06,30,6.70
2016,09,15,06,31,6.70
2016,09,15,06,32,6.70
2016,09,15,06,33,6.70
2016,09,15,06,34,6.70
2016,09,15,06,35,6.70
2016,09,15,06,36,6.60
2016,09,15,06,37,6.70
2016,09,15,06,38,6.60
2016,09,15,06,39,6.60
2016,09,15,06,40,6.60
2016,09,15,06,41,6.60
2016,09,15,06,42,6.60
2016,09,15,06,43,6.50
2016,09,15,06,44,6.50
2016,09,15,06,45,6.40
2016,09,15,06,46,6.40
2016,09,15,06,47,6.40
2016,09,15,06,48,6.40
2016,09,15,06,49,6.40
2016,09,15,06,50,6.30
2016,09,15,06,51,6.30
2016,09,15,06,52,6.30
2016,09,15,06,53,6.30
2016,09,15,06,54,6.30
2016,09,15,06,55,6.30
2016,09,15,06,56,6.30
2016,09,15,06,57,6.30
2016,09,15,06,58,6.30
2016,09,15,06,59,6.30
2016,09,15,07,00,6.40
2016,09,15,07,01,6.40
2016,09,15,07,02,6.40
2016,09,15,07,03,6.40
2016,09,15,07,04,6.40
2016,09,15,07,05,6.50
2016,09,15,07,06,6.50
2016,09,15,07,07,6.60
2016,09,15,07,08,6.60
2016,09,15,07,09,6.70
2016,09,15,07,10,6.70
2016,09,15,07,11,6.80
2016,09,15,07,12,6.80
2016,09,15,07,13,6.80
2016,09,15,07,14,6.80
2016,09,15,07,15,6.80
2016,09,15,07,16,6.80
2016,09,15,07,17,6.80
2016,09,15,07,18,6.80
2016,09,15,07,19,6.90
2016,09,15,07,20,6.90
2016,09,15,07,21,6.90
2016,09,15,07,22,6.90
2016,09,15,07,23,6.90
2016,09,15,07,24,7.00
2016,09,15,07,25,7.00
2016,09,15,07,26,7.10
2016,09,15,07,27,7.10
2016,09,15,07,28,7.20
2016,09,15,07,29,7.30
2016,09,15,07,30,7.30
2016,09,15,07,31,7.30
2016,09,15,07,32,7.40
2016,09,15,07,33,7.40
2016,09,15,07,34,7.40
2016,09,15,07,35,7.50
2016,09,15,07,36,7.50
2016,09,15,07,37,7.50
2016,09,15,07,38,7.50
2016,09,15,07,39,7.60
2016,09,15,07,40,7.60
2016,09,15,07,41,7.60
2016,09,15,07,42,7.60
2016,09,15,07,43,7.60
2016,09,15,07,44,7.60
2016,09,15,07,45,7.70
2016,09,15,07,46,7.70
2016,09,15,07,47,7.70
2016,09,15,07,48,7.70
2016,09,15,07,49,7.70
2016,09,15,07,50,7.80
2016,09,15,07,51,7.80
2016,09,15,07,52,7.80
2016,09,15,07,53,7.90
2016,09,15,07,54,7.90
2016,09,15,07,55,8.00
2016,09,15,07,56,8.00
2016,09,15,07,57,8.10
2016,09,15,07,58,8.10
2016,09,15,07,59,8.20
2016,09,15,08,00,8.20
2016,09,15,08,01,8.20
2016,09,15,08,02,8.30
2016,09,15,08,03,8.30
2016,09,15,08,04,8.40
2016,09,15,08,05,8.40
2016,09,15,08,06,8.50
2016,09,15,08,07,8.50
2016,09,15,08,08,8.60
2016,09,15,08,09,8.60
2016,09,15,08,10,8.70
2016,09,15,08,11,8.70
2016,09,15,08,12,8.80
2016,09,15,08,13,8.80
2016,09,15,08,14,8.90
2016,09,15,08,15,8.90
2016,09,15,08,16,9.00
2016,09,15,08,17,9.00
2016,09,15,08,18,9.10
2016,09,15,08,19,9.20
2016,09,15,08,20,9.30
2016,09,15,08,21,9.30
2016,09,15,08,22,9.40
2016,09,15,08,23,9.50
2016,09,15,08,24,9.60
2016,09,15,08,25,9.70
2016,09,15,08,26,9.80
2016,09,15,08,27,9.90
2016,09,15,08,28,10.00
2016,09,15,08,29,10.00
2016,09,15,08,30,10.20
2016,09,15,08,31,10.20
2016,09,15,08,32,10.30
2016,09,15,08,33,10.40
2016,09,15,08,34,10.50
2016,09,15,08,35,10.60
2016,09,15,08,36,10.80
2016,09,15,08,37,10.80
2016,09,15,08,38,10.90
2016,09,15,08,39,11.00
2016,09,15,08,40,11.10
2016,09,15,08,41,11.20
2016,09,15,08,42,11.30
2016,09,15,08,43,11.30
2016,09,15,08,44,11.40
2016,09,15,08,45,11.50
2016,09,15,08,46,11.60
2016,09,15,08,47,11.60
2016,09,15,08,48,11.80
2016,09,15,08,49,11.80
2016,09,15,08,50,11.90
2016,09,15,08,51,12.00
2016,09,15,08,52,12.10
2016,09,15,08,53,12.20
2016,09,15,08,54,12.30
2016,09,15,08,55,12.50
2016,09,15,08,56,12.50
2016,09,15,08,57,12.70
2016,09,15,08,58,12.80
2016,09,15,08,59,12.90
2016,09,15,09,00,13.00
2016,09,15,09,01,13.10
2016,09,15,09,02,13.10
2016,09,15,09,03,13.20
2016,09,15,09,04,13.20
2016,09,15,09,05,13.20
2016,09,15,09,06,13.20
2016,09,15,09,07,13.20
2016,09,15,09,08,13.30
2016,09,15,09,09,13.30
2016,09,15,09,10,13.40
2016,09,15,09,11,13.50
2016,09,15,09,12,13.50
2016,09,15,09,13,13.60
2016,09,15,09,14,13.60
2016,09,15,09,15,13.60
2016,09,15,09,16,13.60
2016,09,15,09,17,13.60
2016,09,15,09,18,13.60
2016,09,15,09,19,13.70
2016,09,15,09,20,13.70
2016,09,15,09,21,13.70
2016,09,15,09,22,13.70
2016,09,15,09,23,13.70
2016,09,15,09,24,13.80
2016,09,15,09,25,13.90
2016,09,15,09,26,13.90
2016,09,15,09,27,14.00
2016,09,15,09,28,14.10
2016,09,15,09,29,14.10
2016,09,15,09,30,14.20
2016,09,15,09,31,14.40
2016,09,15,09,32,14.50
2016,09,15,09,33,14.60
2016,09,15,09,34,14.60
2016,09,15,09,35,14.70
2016,09,15,09,36,14.70
2016,09,15,09,37,14.70
2016,09,15,09,38,14.70
2016,09,15,09,39,14.80
2016,09,15,09,40,14.80
2016,09,15,09,41,14.80
2016,09,15,09,42,14.80
2016,09,15,09,43,14.90
2016,09,15,09,44,15.00
2016,09,15,09,45,15.00
2016,09,15,09,46,15.10
2016,09,15,09,47,15.10
2016,09,15,09,48,15.20
2016,09,15,09,49,15.30
2016,09,15,09,50,15.30
2016,09,15,09,51,15.40
2016,09,15,09,52,15.50
2016,09,15,09,53,15.60
2016,09,15,09,54,15.70
2016,09,15,09,55,15.80
2016,09,15,09,56,15.80
2016,09,15,09,57,15.80
2016,09,15,09,58,15.80
2016,09,15,09,59,15.80
2016,09,15,10,00,15.90
2016,09,15,10,01,15.90
2016,09,15,10,02,16.00
2016,09,15,10,03,16.00
2016,09,15,10,04,16.00
2016,09,15,10,05,16.00
2016,09,15,10,06,16.00
2016,09,15,10,07,15.90
2016,09,15,10,08,15.90
2016,09,15,10,09,16.00
2016,09,15,10,10,16.10
2016,09,15,10,11,16.30
2016,09,15,10,12,16.40
2016,09,15,10,13,16.50
2016,09,15,10,14,16.50
2016,09,15,10,15,16.60
2016,09,15,10,16,16.70
2016,09,15,10,17,16.70
2016,09,15,10,18,16.70
2016,09,15,10,19,16.80
2016,09,15,10,20,16.80
2016,09,15,10,21,16.80
2016,09,15,10,22,16.80
2016,09,15,10,23,16.90
2016,09,15,10,24,16.90
2016,09,15,10,25,16.90
2016,09,15,10,26,16.90
2016,09,15,10,27,16.80
2016,09,15,10,28,16.80
2016,09,15,10,29,16.80
2016,09,15,10,30,16.70
2016,09,15,10,31,16.70
2016,09,15,10,32,16.60
2016,09,15,10,33,16.60
2016,09,15,10,34,16.60
2016,09,15,10,35,16.50
2016,09,15,10,36,16.40
2016,09,15,10,37,16.40
2016,09,15,10,38,16.30
2016,09,15,10,39,16.30
2016,09,15,10,40,16.20
2016,09,15,10,41,16.20
2016,09,15,10,42,16.20
2016,09,15,10,43,16.20
2016,09,15,10,44,16.10
2016,09,15,10,45,16.00
2016,09,15,10,46,16.00
2016,09,15,10,47,15.90
2016,09,15,10,48,15.80
2016,09,15,10,49,15.80
2016,09,15,10,50,15.80
2016,09,15,10,51,15.70
2016,09,15,10,52,15.70
2016,09,15,10,53,15.70
2016,09,15,10,54,15.60
2016,09,15,10,55,15.60
2016,09,15,10,56,15.60
2016,09,15,10,57,15.60
2016,09,15,10,58,15.60
2016,09,15,10,59,15.60
2016,09,15,11,00,15.60
2016,09,15,11,01,15.60
2016,09,15,11,02,15.60
2016,09,15,11,03,15.50
2016,09,15,11,04,15.60
2016,09,15,11,05,15.60
2016,09,15,11,06,15.60
2016,09,15,11,07,15.60
2016,09,15,11,08,15.60
2016,09,15,11,09,15.60
2016,09,15,11,10,15.60
2016,09,15,11,11,15.70
2016,09,15,11,12,15.80
2016,09,15,11,13,15.80
2016,09,15,11,14,15.90
2016,09,15,11,15,15.90
2016,09,15,11,16,16.00
2016,09,15,11,17,16.00
2016,09,15,11,18,16.00
2016,09,15,11,19,16.00
2016,09,15,11,20,16.00
2016,09,15,11,21,16.00
2016,09,15,11,22,16.00
2016,09,15,11,23,16.00
2016,09,15,11,24,15.90
2016,09,15,11,25,15.90
2016,09,15,11,26,15.90
2016,09,15,11,27,15.80
2016,09,15,11,28,15.80
2016,09,15,11,29,15.80
2016,09,15,11,30,15.80
2016,09,15,11,31,15.90
2016,09,15,11,32,15.90
2016,09,15,11,33,16.00
2016,09,15,11,34,16.10
2016,09,15,11,35,16.20
2016,09,15,11,36,16.40
2016,09,15,11,37,16.60
2016,09,15,11,38,16.70
2016,09,15,11,39,16.80
2016,09,15,11,40,16.80
2016,09,15,11,41,16.80
2016,09,15,11,42,16.80
2016,09,15,11,43,16.80
2016,09,15,11,44,16.80
2016,09,15,11,45,16.90
2016,09,15,11,46,16.90
2016,09,15,11,47,17.00
2016,09,15,11,48,17.00
2016,09,15,11,49,17.10
2016,09,15,11,50,17.20
2016,09,15,11,51,17.40
2016,09,15,11,52,17.40
2016,09,15,11,53,17.40
2016,09,15,11,54,17.40
2016,09,15,11,55,17.40
2016,09,15,11,56,17.40
2016,09,15,11,57,17.40
2016,09,15,11,58,17.30
2016,09,15,11,59,17.20
2016,09,15,12,00,17.30
2016,09,15,12,01,17.30
2016,09,15,12,02,17.40
2016,09,15,12,03,17.40
2016,09,15,12,04,17.40
2016,09,15,12,05,17.40
2016,09,15,12,06,17.30
2016,09,15,12,07,17.20
2016,09,15,12,08,17.10
2016,09,15,12,09,17.20
2016,09,15,12,10,17.10
2016,09,15,12,11,17.10
2016,09,15,12,12,17.00
2016,09,15,12,13,17.00
2016,09,15,12,14,16.90
2016,09,15,12,15,16.90
2016,09,15,12,16,16.90
2016,09,15,12,17,16.80
2016,09,15,12,18,16.80
2016,09,15,12,19,16.80
2016,09,15,12,20,16.90
2016,09,15,12,21,16.90
2016,09,15,12,22,16.90
2016,09,15,12,23,16.80
2016,09,15,12,24,16.80
2016,09,15,12,25,16.70
2016,09,15,12,26,16.70
2016,09,15,12,27,16.80
2016,09,15,12,28,16.90
2016,09,15,12,29,16.90
2016,09,15,12,30,17.00
2016,09,15,12,31,17.00
2016,09,15,12,32,17.00
2016,09,15,12,33,16.90
2016,09,15,12,34,16.90
2016,09,15,12,35,16.80
2016,09,15,12,36,16.60
2016,09,15,12,37,16.60
2016,09,15,12,38,16.50
2016,09,15,12,39,16.50
2016,09,15,12,40,16.50
2016,09,15,12,41,16.60
2016,09,15,12,42,16.70
2016,09,15,12,43,16.80
2016,09,15,12,44,16.80
2016,09,15,12,45,16.90
2016,09,15,12,46,16.90
2016,09,15,12,47,17.00
2016,09,15,12,48,17.10
2016,09,15,12,49,17.10
2016,09,15,12,50,17.10
2016,09,15,12,51,17.10
2016,09,15,12,52,17.00
2016,09,15,12,53,16.90
2016,09,15,12,54,16.80
2016,09,15,12,55,16.80
2016,09,15,12,56,16.80
2016,09,15,12,57,16.80
2016,09,15,12,58,16.80
2016,09,15,12,59,16.90
2016,09,15,13,00,16.90
2016,09,15,13,01,16.90
2016,09,15,13,02,16.90
2016,09,15,13,03,16.90
2016,09,15,13,04,16.90
2016,09,15,13,05,16.90
2016,09,15,13,06,16.90
2016,09,15,13,07,16.90
2016,09,15,13,08,16.90
2016,09,15,13,09,16.90
2016,09,15,13,10,16.90
2016,09,15,13,11,16.90
2016,09,15,13,12,16.90
2016,09,15,13,13,17.00
2016,09,15,13,14,17.10
2016,09,15,13,15,17.00
2016,09,15,13,16,17.00
2016,09,15,13,17,16.90
2016,09,15,13,18,16.80
2016,09,15,13,19,16.80
2016,09,15,13,20,16.80
2016,09,15,13,21,16.80
2016,09,15,13,22,16.80
2016,09,15,13,23,16.80
2016,09,15,13,24,16.80
2016,09,15,13,25,16.80
2016,09,15,13,26,16.80
2016,09,15,13,27,16.80
2016,09,15,13,28,16.80
2016,09,15,13,29,16.80
2016,09,15,13,30,16.80
2016,09,15,13,31,16.90
2016,09,15,13,32,17.00
2016,09,15,13,33,17.10
2016,09,15,13,34,17.20
2016,09,15,13,35,17.20
2016,09,15,13,36,17.20
2016,09,15,13,37,17.20
2016,09,15,13,38,17.20
2016,09,15,13,39,17.20
2016,09,15,13,40,17.20
2016,09,15,13,41,17.30
2016,09,15,13,42,17.30
2016,09,15,13,43,17.20
2016,09,15,13,44,17.20
2016,09,15,13,45,17.20
2016,09,15,13,46,17.20
2016,09,15,13,47,17.20
2016,09,15,13,48,17.20
2016,09,15,13,49,17.20
2016,09,15,13,50,17.20
2016,09,15,13,51,17.20
2016,09,15,13,52,17.20
2016,09,15,13,53,17.20
2016,09,15,13,54,17.20
2016,09,15,13,55,17.20
2016,09,15,13,56,17.20
2016,09,15,13,57,17.20
2016,09,15,13,58,17.20
2016,09,15,13,59,17.30
2016,09,15,14,00,17.30
2016,09,15,14,01,17.30
2016,09,15,14,02,17.30
2016,09,15,14,03,17.30
2016,09,15,14,04,17.30
2016,09,15,14,05,17.30
2016,09,15,14,06,17.20
2016,09,15,14,07,17.20
2016,09,15,14,08,17.30
2016,09,15,14,09,17.40
2016,09,15,14,10,17.50
2016,09,15,14,11,17.50
2016,09,15,14,12,17.50
2016,09,15,14,13,17.50
2016,09,15,14,14,17.50
2016,09,15,14,15,17.40
2016,09,15,14,16,17.40
2016,09,15,14,17,17.30
2016,09,15,14,18,17.30
2016,09,15,14,19,17.20
2016,09,15,14,20,17.20
2016,09,15,14,21,17.20
2016,09,15,14,22,17.20
2016,09,15,14,23,17.20
2016,09,15,14,24,17.30
2016,09,15,14,25,17.40
2016,09,15,14,26,17.40
2016,09,15,14,27,17.40
2016,09,15,14,28,17.40
2016,09,15,14,29,17.40
2016,09,15,14,30,17.30
2016,09,15,14,31,17.20
2016,09,15,14,32,17.20
2016,09,15,14,33,17.10
2016,09,15,14,34,17.10
2016,09,15,14,35,17.10
2016,09,15,14,36,17.10
2016,09,15,14,37,17.20
2016,09,15,14,38,17.20
2016,09,15,14,39,17.20
2016,09,15,14,40,17.30
2016,09,15,14,41,17.30
2016,09,15,14,42,17.30
2016,09,15,14,43,17.20
2016,09,15,14,44,17.20
2016,09,15,14,45,17.20
2016,09,15,14,46,17.20
2016,09,15,14,47,17.20
2016,09,15,14,48,17.30
2016,09,15,14,49,17.30
2016,09,15,14,50,17.30
2016,09,15,14,51,17.30
2016,09,15,14,52,17.30
2016,09,15,14,53,17.30
2016,09,15,14,54,17.40
2016,09,15,14,55,17.50
2016,09,15,14,56,17.60
2016,09,15,14,57,17.60
2016,09,15,14,58,17.70
2016,09,15,14,59,17.80
2016,09,15,15,00,17.80
2016,09,15,15,01,17.80
2016,09,15,15,02,17.80
2016,09,15,15,03,17.70
2016,09,15,15,04,17.70
2016,09,15,15,05,17.60
2016,09,15,15,06,17.60
2016,09,15,15,07,17.60
2016,09,15,15,08,17.70
2016,09,15,15,09,17.80
2016,09,15,15,10,17.80
2016,09,15,15,11,18.00
2016,09,15,15,12,18.10
2016,09,15,15,13,18.20
2016,09,15,15,14,18.20
2016,09,15,15,15,18.30
2016,09,15,15,16,18.30
2016,09,15,15,17,18.20
2016,09,15,15,18,18.20
2016,09,15,15,19,18.20
2016,09,15,15,20,18.10
2016,09,15,15,21,18.10
2016,09,15,15,22,18.20
2016,09,15,15,23,18.20
2016,09,15,15,24,18.30
2016,09,15,15,25,18.20
2016,09,15,15,26,18.20
2016,09,15,15,27,18.30
2016,09,15,15,28,18.40
2016,09,15,15,29,18.40
2016,09,15,15,30,18.40
2016,09,15,15,31,18.40
2016,09,15,15,32,18.40
2016,09,15,15,33,18.40
2016,09,15,15,34,18.40
2016,09,15,15,35,18.40
2016,09,15,15,36,18.30
2016,09,15,15,37,18.30
2016,09,15,15,38,18.20
2016,09,15,15,39,18.10
2016,09,15,15,40,18.10
2016,09,15,15,41,18.00
2016,09,15,15,42,18.00
2016,09,15,15,43,17.90
2016,09,15,15,44,17.90
2016,09,15,15,45,17.90
2016,09,15,15,46,18.00
2016,09,15,15,47,18.00
2016,09,15,15,48,18.00
2016,09,15,15,49,17.90
2016,09,15,15,50,17.90
2016,09,15,15,51,17.80
2016,09,15,15,52,17.90
2016,09,15,15,53,18.00
2016,09,15,15,54,18.00
2016,09,15,15,55,18.00
2016,09,15,15,56,17.90
2016,09,15,15,57,17.90
2016,09,15,15,58,17.90
2016,09,15,15,59,18.00
2016,09,15,16,00,17.90
2016,09,15,16,01,17.90
2016,09,15,16,02,17.90
2016,09,15,16,03,17.80
2016,09,15,16,04,17.80
2016,09,15,16,05,17.90
2016,09,15,16,06,18.00
2016,09,15,16,07,18.00
2016,09,15,16,08,18.10
2016,09,15,16,09,18.10
2016,09,15,16,10,18.10
2016,09,15,16,11,18.10
2016,09,15,16,12,18.00
2016,09,15,16,13,18.00
2016,09,15,16,14,17.90
2016,09,15,16,15,18.00
2016,09,15,16,16,18.00
2016,09,15,16,17,18.00
2016,09,15,16,18,18.00
2016,09,15,16,19,17.90
2016,09,15,16,20,17.90
2016,09,15,16,21,17.90
2016,09,15,16,22,17.90
2016,09,15,16,23,17.90
2016,09,15,16,24,17.90
2016,09,15,16,25,17.90
2016,09,15,16,26,17.90
2016,09,15,16,27,18.10
2016,09,15,16,28,18.10
2016,09,15,16,29,18.10
2016,09,15,16,30,18.10
2016,09,15,16,31,18.00
2016,09,15,16,32,18.00
2016,09,15,16,33,18.00
2016,09,15,16,34,18.10
2016,09,15,16,35,18.20
2016,09,15,16,36,18.20
2016,09,15,16,37,18.30
2016,09,15,16,38,18.40
2016,09,15,16,39,18.50
2016,09,15,16,40,18.50
2016,09,15,16,41,18.50
2016,09,15,16,42,18.50
2016,09,15,16,43,18.40
2016,09,15,16,44,18.40
2016,09,15,16,45,18.50
2016,09,15,16,46,18.60
2016,09,15,16,47,18.60
2016,09,15,16,48,18.70
2016,09,15,16,49,18.70
2016,09,15,16,50,18.70
2016,09,15,16,51,18.60
2016,09,15,16,52,18.60
2016,09,15,16,53,18.70
2016,09,15,16,54,18.70
2016,09,15,16,55,18.80
2016,09,15,16,56,18.80
2016,09,15,16,57,18.80
2016,09,15,16,58,18.80
2016,09,15,16,59,18.80
2016,09,15,17,00,18.80
2016,09,15,17,01,18.80
2016,09,15,17,02,18.80
2016,09,15,17,03,18.70
2016,09,15,17,04,18.70
2016,09,15,17,05,18.70
2016,09,15,17,06,18.70
2016,09,15,17,07,18.70
2016,09,15,17,08,18.70
2016,09,15,17,09,18.80
2016,09,15,17,10,18.80
2016,09,15,17,11,18.90
2016,09,15,17,12,18.90
2016,09,15,17,13,18.80
2016,09,15,17,14,18.80
2016,09,15,17,15,18.80
2016,09,15,17,16,18.80
2016,09,15,17,17,18.70
2016,09,15,17,18,18.70
2016,09,15,17,19,18.80
2016,09,15,17,20,18.80
2016,09,15,17,21,18.80
2016,09,15,17,22,18.80
2016,09,15,17,23,18.80
2016,09,15,17,24,18.80
2016,09,15,17,25,18.90
2016,09,15,17,26,18.80
2016,09,15,17,27,18.80
2016,09,15,17,28,18.80
2016,09,15,17,29,18.80
2016,09,15,17,30,18.80
2016,09,15,17,31,18.80
2016,09,15,17,32,18.70
2016,09,15,17,33,18.70
2016,09,15,17,34,18.70
2016,09,15,17,35,18.70
2016,09,15,17,36,18.70
2016,09,15,17,37,18.80
2016,09,15,17,38,18.80
2016,09,15,17,39,18.80
2016,09,15,17,40,18.80